| time (UTC) | temp F | wind direction | speed MPH | gust MPH | rain 1hr in | rain 24hr in | rain mn in | humidity % | barometer mb |
| 20260906093525 | 57 | 169 | 0.0 | 0.0 | 0.00 | 0.11 | 0.00 | 74 | 1026.0 |
| 20260906093039 | 57 | 169 | 0.0 | 0.0 | 0.00 | 0.11 | 0.00 | 75 | 1025.8 |
| 20260906092516 | 57 | 169 | 0.0 | 0.0 | 0.00 | 0.11 | 0.00 | 73 | 1025.7 |
| 20260906092009 | 57 | 169 | 0.0 | 0.0 | 0.00 | 0.11 | 0.00 | 73 | 1025.7 |
| 20260906091523 | 57 | 169 | 0.0 | 0.0 | 0.00 | 0.11 | 0.00 | 71 | 1025.7 |
| 20260906091016 | 57 | 169 | 0.0 | 0.0 | 0.00 | 0.11 | 0.00 | 73 | 1025.7 |
| 20260906090510 | 57 | 169 | 0.0 | 0.0 | 0.00 | 0.11 | 0.00 | 73 | 1025.7 |
| 20260906090024 | 57 | 169 | 0.0 | 0.0 | 0.00 | 0.11 | 0.00 | 74 | 1025.7 |
| 20260906085518 | 57 | 169 | 0.0 | 0.0 | 0.00 | 0.11 | 0.00 | 72 | 1025.7 |
| 20260906085011 | 57 | 169 | 0.0 | 0.0 | 0.00 | 0.11 | 0.00 | 73 | 1025.7 |
| 20260906084529 | 57 | 169 | 0.0 | 0.0 | 0.00 | 0.11 | 0.00 | 73 | 1025.7 |
| 20260906084023 | 57 | 169 | 0.0 | 0.0 | 0.00 | 0.11 | 0.00 | 73 | 1025.8 |
| 20260906083518 | 57 | 169 | 0.0 | 0.0 | 0.00 | 0.11 | 0.00 | 73 | 1025.9 |
| 20260906083012 | 57 | 169 | 0.0 | 0.0 | 0.00 | 0.11 | 0.00 | 73 | 1025.9 |
| 20260906082526 | 57 | 51 | 0.0 | 0.0 | 0.00 | 0.11 | 0.00 | 75 | 1025.9 |
| 20260906082019 | 57 | 51 | 0.0 | 0.0 | 0.00 | 0.11 | 0.00 | 74 | 1025.9 |
| 20260906081512 | 57 | 51 | 0.0 | 0.0 | 0.00 | 0.11 | 0.00 | 75 | 1025.9 |
| 20260906081026 | 57 | 51 | 0.0 | 0.0 | 0.00 | 0.11 | 0.00 | 74 | 1026.0 |
| 20260906080520 | 57 | 51 | 0.0 | 0.0 | 0.00 | 0.11 | 0.00 | 74 | 1026.0 |
| 20260906080019 | 57 | 51 | 0.0 | 0.0 | 0.00 | 0.11 | 0.00 | 74 | 1026.0 |
| 20260906075513 | 57 | 51 | 0.0 | 0.0 | 0.00 | 0.11 | 0.00 | 73 | 1026.1 |
| 20260906075028 | 57 | 51 | 0.0 | 0.0 | 0.00 | 0.11 | 0.00 | 74 | 1026.1 |
| 20260906074523 | 57 | 51 | 0.0 | 0.0 | 0.00 | 0.11 | 0.00 | 73 | 1026.2 |
| 20260906074016 | 57 | 51 | 0.0 | 0.0 | 0.00 | 0.11 | 0.00 | 73 | 1026.2 |
| 20260906073511 | 57 | 51 | 0.0 | 0.0 | 0.00 | 0.11 | 0.00 | 71 | 1026.2 |
| 20260906073025 | 58 | 51 | 0.0 | 0.0 | 0.00 | 0.11 | 0.00 | 72 | 1026.2 |
| 20260906072524 | 58 | 51 | 0.0 | 0.0 | 0.00 | 0.11 | 0.00 | 70 | 1026.2 |
| 20260906072018 | 58 | 51 | 0.0 | 0.0 | 0.00 | 0.11 | 0.00 | 72 | 1026.4 |
| 20260906071511 | 58 | 51 | 0.0 | 0.0 | 0.00 | 0.11 | 0.00 | 71 | 1026.4 |
| 20260906071025 | 58 | 51 | 0.0 | 0.0 | 0.00 | 0.11 | 0.00 | 71 | 1026.4 |
| 20260906070540 | 58 | 51 | 0.0 | 0.0 | 0.00 | 0.11 | 0.00 | 72 | 1026.5 |
| 20260906070013 | 59 | 51 | 0.0 | 0.0 | 0.00 | 0.11 | 0.00 | 69 | 1026.5 |
| 20260906065527 | 59 | 51 | 0.0 | 0.0 | 0.00 | 0.11 | 0.00 | 70 | 1026.6 |
| 20260906065021 | 59 | 51 | 0.0 | 0.0 | 0.00 | 0.11 | 0.00 | 70 | 1026.5 |
| 20260906064535 | 59 | 51 | 0.0 | 0.0 | 0.00 | 0.11 | 0.00 | 68 | 1026.5 |
| 20260906064030 | 59 | 51 | 0.0 | 0.0 | 0.00 | 0.11 | 0.00 | 70 | 1026.5 |
| 20260906063527 | 60 | 51 | 0.0 | 0.0 | 0.00 | 0.11 | 0.00 | 67 | 1026.5 |
| 20260906063021 | 60 | 51 | 0.0 | 0.0 | 0.00 | 0.11 | 0.11 | 68 | 1026.5 |
| 20260906062514 | 60 | 51 | 0.0 | 0.0 | 0.00 | 0.11 | 0.11 | 69 | 1026.5 |
| 20260906062049 | 60 | 51 | 0.0 | 0.0 | 0.00 | 0.11 | 0.11 | 68 | 1026.5 |
| 20260906061522 | 60 | 51 | 0.0 | 0.0 | 0.00 | 0.11 | 0.11 | 68 | 1026.4 |
| 20260906061016 | 61 | 51 | 0.0 | 0.0 | 0.00 | 0.11 | 0.11 | 65 | 1026.5 |
| 20260906060511 | 61 | 51 | 0.0 | 0.0 | 0.00 | 0.11 | 0.11 | 65 | 1026.4 |
| 20260906060045 | 61 | 51 | 0.0 | 0.0 | 0.00 | 0.11 | 0.11 | 68 | 1026.4 |
| 20260906055518 | 62 | 51 | 0.0 | 0.0 | 0.00 | 0.11 | 0.11 | 66 | 1026.4 |
| 20260906055033 | 62 | 51 | 0.0 | 0.0 | 0.00 | 0.11 | 0.11 | 63 | 1026.4 |
| 20260906054510 | 62 | 51 | 0.0 | 0.0 | 0.00 | 0.11 | 0.11 | 63 | 1026.4 |
| 20260906054023 | 62 | 51 | 0.0 | 0.0 | 0.00 | 0.11 | 0.11 | 64 | 1026.4 |
| 20260906053516 | 63 | 51 | 0.0 | 0.0 | 0.00 | 0.11 | 0.11 | 63 | 1026.3 |
| 20260906053010 | 64 | 51 | 0.0 | 0.0 | 0.00 | 0.11 | 0.11 | 63 | 1026.4 |
| 20260906052524 | 64 | 51 | 0.0 | 0.0 | 0.00 | 0.11 | 0.11 | 61 | 1026.4 |
| 20260906052019 | 65 | 51 | 0.0 | 0.0 | 0.00 | 0.11 | 0.11 | 62 | 1026.2 |
| 20260906051512 | 65 | 51 | 0.0 | 0.0 | 0.00 | 0.11 | 0.11 | 57 | 1026.2 |
| 20260906051026 | 66 | 51 | 0.0 | 0.0 | 0.00 | 0.11 | 0.11 | 58 | 1026.2 |
| 20260906050523 | 66 | 51 | 0.0 | 0.0 | 0.00 | 0.11 | 0.11 | 58 | 1026.1 |
| 20260906050017 | 67 | 51 | 0.0 | 0.0 | 0.00 | 0.11 | 0.11 | 53 | 1026.1 |
| 20260906045511 | 68 | 51 | 0.0 | 0.0 | 0.00 | 0.11 | 0.11 | 54 | 1026.0 |
| 20260906045024 | 69 | 51 | 0.0 | 0.0 | 0.00 | 0.11 | 0.11 | 51 | 1026.0 |
| 20260906044518 | 69 | 51 | 0.0 | 0.0 | 0.00 | 0.11 | 0.11 | 49 | 1025.9 |
| 20260906044032 | 70 | 51 | 0.0 | 0.0 | 0.00 | 0.11 | 0.11 | 48 | 1026.0 |
| 20260906043545 | 71 | 51 | 0.0 | 5.0 | 0.00 | 0.11 | 0.11 | 44 | 1026.0 |
| 20260906043018 | 71 | 51 | 0.0 | 5.0 | 0.00 | 0.11 | 0.11 | 43 | 1025.8 |
| 20260906042511 | 71 | 46 | 2.0 | 3.0 | 0.00 | 0.11 | 0.11 | 41 | 1025.7 |
| 20260906042009 | 72 | 215 | 1.0 | 2.0 | 0.00 | 0.11 | 0.11 | 41 | 1025.6 |
| 20260906041522 | 72 | 310 | 0.0 | 8.0 | 0.00 | 0.11 | 0.11 | 42 | 1025.5 |
| 20260906041016 | 72 | 5 | 2.0 | 8.0 | 0.00 | 0.11 | 0.11 | 39 | 1025.5 |
| 20260906040510 | 72 | 300 | 2.0 | 7.0 | 0.00 | 0.11 | 0.11 | 40 | 1025.5 |
| 20260906040022 | 72 | 43 | 2.0 | 10.0 | 0.00 | 0.11 | 0.11 | 40 | 1025.5 |
| 20260906035517 | 72 | 289 | 3.0 | 10.0 | 0.00 | 0.11 | 0.11 | 39 | 1025.5 |
| 20260906035011 | 72 | 81 | 1.0 | 4.0 | 0.00 | 0.11 | 0.11 | 40 | 1025.4 |
| 20260906034525 | 72 | 346 | 1.0 | 4.0 | 0.00 | 0.11 | 0.11 | 40 | 1025.4 |
| 20260906034022 | 72 | 299 | 1.0 | 3.0 | 0.00 | 0.11 | 0.11 | 40 | 1025.4 |
| 20260906033516 | 73 | 309 | 1.0 | 7.0 | 0.00 | 0.11 | 0.11 | 40 | 1025.4 |
| 20260906033009 | 72 | 259 | 2.0 | 8.0 | 0.00 | 0.11 | 0.11 | 40 | 1025.3 |
| 20260906032523 | 72 | 286 | 2.0 | 8.0 | 0.00 | 0.11 | 0.11 | 40 | 1025.3 |
| 20260906032018 | 72 | 286 | 2.0 | 4.0 | 0.00 | 0.11 | 0.11 | 42 | 1025.3 |
| 20260906031511 | 72 | 280 | 1.0 | 5.0 | 0.00 | 0.11 | 0.11 | 40 | 1025.2 |
| 20260906031025 | 72 | 244 | 1.0 | 5.0 | 0.00 | 0.11 | 0.11 | 40 | 1025.2 |
| 20260906030519 | 72 | 219 | 2.0 | 4.0 | 0.00 | 0.11 | 0.11 | 41 | 1025.1 |
| 20260906030016 | 72 | 286 | 1.0 | 3.0 | 0.00 | 0.11 | 0.11 | 42 | 1025.0 |
| 20260906025510 | 72 | 43 | 0.0 | 4.0 | 0.00 | 0.11 | 0.11 | 41 | 1025.0 |
| 20260906025023 | 72 | 43 | 1.0 | 4.0 | 0.00 | 0.11 | 0.11 | 41 | 1025.0 |
| 20260906024518 | 72 | 48 | 1.0 | 3.0 | 0.00 | 0.11 | 0.11 | 43 | 1024.9 |
| 20260906024012 | 72 | 314 | 1.0 | 4.0 | 0.00 | 0.11 | 0.11 | 42 | 1024.8 |
| 20260906023546 | 71 | 318 | 1.0 | 4.0 | 0.00 | 0.11 | 0.11 | 44 | 1024.7 |
| 20260906023018 | 70 | 350 | 0.0 | 3.0 | 0.00 | 0.11 | 0.11 | 44 | 1024.7 |
| 20260906022512 | 70 | 350 | 1.0 | 3.0 | 0.00 | 0.11 | 0.11 | 47 | 1024.6 |
| 20260906022009 | 69 | 350 | 1.0 | 3.0 | 0.00 | 0.11 | 0.11 | 47 | 1024.7 |
| 20260906021522 | 69 | 308 | 1.0 | 2.0 | 0.00 | 0.11 | 0.11 | 52 | 1024.7 |
| 20260906021016 | 69 | 308 | 1.0 | 2.0 | 0.00 | 0.11 | 0.11 | 53 | 1024.7 |
| 20260906020509 | 69 | 294 | 1.0 | 2.0 | 0.00 | 0.11 | 0.11 | 52 | 1024.7 |
| 20260906020022 | 69 | 294 | 0.0 | 2.0 | 0.00 | 0.11 | 0.11 | 57 | 1024.6 |
| 20260906015535 | 69 | 49 | 0.0 | 0.0 | 0.00 | 0.11 | 0.11 | 57 | 1024.6 |
| 20260906015009 | 69 | 49 | 0.0 | 0.0 | 0.00 | 0.11 | 0.11 | 58 | 1024.6 |
| 20260906014522 | 69 | 49 | 0.0 | 0.0 | 0.00 | 0.11 | 0.11 | 58 | 1024.6 |
| 20260906014016 | 69 | 49 | 0.0 | 2.0 | 0.00 | 0.11 | 0.11 | 60 | 1024.6 |
| 20260906013514 | 70 | 49 | 0.0 | 2.0 | 0.00 | 0.11 | 0.11 | 58 | 1024.5 |
| 20260906013048 | 70 | 49 | 0.0 | 0.0 | 0.00 | 0.11 | 0.11 | 57 | 1024.5 |
| 20260906012541 | 71 | 49 | 0.0 | 0.0 | 0.00 | 0.11 | 0.11 | 58 | 1024.5 |
| 20260906012034 | 71 | 49 | 0.0 | 0.0 | 0.00 | 0.11 | 0.11 | 57 | 1024.5 |
| 20260906011527 | 72 | 49 | 0.0 | 0.0 | 0.00 | 0.11 | 0.11 | 57 | 1024.5 |
| 20260906011020 | 72 | 49 | 0.0 | 0.0 | 0.00 | 0.11 | 0.11 | 58 | 1024.6 |
| 20260906010514 | 73 | 49 | 0.0 | 0.0 | 0.00 | 0.11 | 0.11 | 61 | 1024.5 |
| 20260906010047 | 73 | 49 | 0.0 | 0.0 | 0.00 | 0.11 | 0.11 | 61 | 1024.4 |
| 20260906005517 | 73 | 49 | 0.0 | 0.0 | 0.00 | 0.11 | 0.11 | 59 | 1024.5 |
| 20260906005029 | 74 | 49 | 0.0 | 0.0 | 0.00 | 0.11 | 0.11 | 60 | 1024.5 |
| 20260906004526 | 74 | 49 | 0.0 | 0.0 | 0.00 | 0.11 | 0.11 | 58 | 1024.4 |
| 20260906004020 | 74 | 49 | 0.0 | 0.0 | 0.00 | 0.11 | 0.11 | 55 | 1024.4 |
| 20260906003514 | 75 | 49 | 0.0 | 0.0 | 0.00 | 0.11 | 0.11 | 52 | 1024.4 |
| 20260906003027 | 75 | 49 | 0.0 | 0.0 | 0.00 | 0.11 | 0.11 | 52 | 1024.4 |
| 20260906002521 | 75 | 49 | 0.0 | 0.0 | 0.00 | 0.11 | 0.11 | 50 | 1024.4 |
| 20260906002015 | 76 | 49 | 0.0 | 0.0 | 0.00 | 0.11 | 0.11 | 49 | 1024.4 |
| 20260906001549 | 76 | 49 | 0.0 | 0.0 | 0.00 | 0.11 | 0.11 | 48 | 1024.4 |
| 20260906001022 | 76 | 49 | 0.0 | 0.0 | 0.00 | 0.11 | 0.11 | 49 | 1024.3 |
| 20260906000520 | 76 | 49 | 0.0 | 0.0 | 0.00 | 0.11 | 0.11 | 47 | 1024.3 |
| 20260906000013 | 76 | 49 | 0.0 | 0.0 | 0.00 | 0.11 | 0.11 | 48 | 1024.3 |
| 20260905235527 | 77 | 49 | 0.0 | 0.0 | 0.00 | 0.11 | 0.11 | 48 | 1024.1 |
| 20260905235020 | 77 | 49 | 0.0 | 0.0 | 0.00 | 0.11 | 0.11 | 48 | 1024.3 |
| 20260905234515 | 77 | 49 | 0.0 | 0.0 | 0.00 | 0.11 | 0.11 | 47 | 1024.3 |
| 20260905234028 | 77 | 49 | 0.0 | 0.0 | 0.00 | 0.11 | 0.11 | 48 | 1024.3 |
| 20260905233522 | 77 | 49 | 0.0 | 0.0 | 0.00 | 0.11 | 0.11 | 49 | 1024.3 |
| 20260905233015 | 77 | 49 | 0.0 | 0.0 | 0.00 | 0.11 | 0.11 | 49 | 1024.3 |
| 20260905232513 | 77 | 49 | 0.0 | 0.0 | 0.00 | 0.11 | 0.11 | 49 | 1024.3 |
| 20260905232026 | 77 | 49 | 0.0 | 0.0 | 0.00 | 0.11 | 0.11 | 45 | 1024.3 |
| 20260905231541 | 77 | 49 | 0.0 | 2.0 | 0.00 | 0.11 | 0.11 | 44 | 1024.4 |
| 20260905231113 | 78 | 49 | 0.0 | 3.0 | 0.00 | 0.11 | 0.11 | 45 | 1024.3 |
| 20260905230607 | 78 | 49 | 1.0 | 4.0 | 0.00 | 0.11 | 0.11 | 42 | 1024.4 |
| 20260905230120 | 78 | 57 | 3.0 | 5.0 | 0.00 | 0.11 | 0.11 | 41 | 1024.5 |
| 20260905225615 | 78 | 46 | 2.0 | 3.0 | 0.00 | 0.11 | 0.11 | 45 | 1024.4 |
| 20260905225129 | 78 | 157 | 0.0 | 3.0 | 0.00 | 0.11 | 0.11 | 44 | 1024.5 |
| 20260905224621 | 77 | 160 | 0.0 | 4.0 | 0.00 | 0.11 | 0.11 | 48 | 1024.5 |
| 20260905224115 | 77 | 56 | 2.0 | 4.0 | 0.00 | 0.11 | 0.11 | 46 | 1024.6 |
| 20260905223614 | 77 | 15 | 1.0 | 8.0 | 0.00 | 0.11 | 0.11 | 47 | 1024.5 |
| 20260905223107 | 77 | 46 | 4.0 | 10.0 | 0.00 | 0.11 | 0.11 | 45 | 1024.6 |
| 20260905222621 | 77 | 54 | 5.0 | 10.0 | 0.00 | 0.11 | 0.11 | 46 | 1024.6 |
| 20260905222135 | 76 | 45 | 3.0 | 8.0 | 0.00 | 0.11 | 0.11 | 49 | 1024.6 |
| 20260905221607 | 75 | 50 | 2.0 | 5.0 | 0.00 | 0.11 | 0.11 | 52 | 1024.8 |
| 20260905221120 | 74 | 53 | 1.0 | 5.0 | 0.00 | 0.11 | 0.11 | 52 | 1024.8 |
| 20260905220634 | 74 | 49 | 1.0 | 5.0 | 0.00 | 0.11 | 0.11 | 53 | 1024.8 |
| 20260905220106 | 73 | 49 | 3.0 | 5.0 | 0.00 | 0.11 | 0.11 | 54 | 1024.8 |
| 20260905215620 | 73 | 75 | 1.0 | 3.0 | 0.00 | 0.11 | 0.11 | 56 | 1024.9 |
| 20260905215114 | 73 | 32 | 1.0 | 3.0 | 0.00 | 0.11 | 0.11 | 57 | 1024.9 |
| 20260905214632 | 73 | 109 | 0.0 | 5.0 | 0.00 | 0.11 | 0.11 | 58 | 1024.9 |
| 20260905214104 | 73 | 53 | 2.0 | 6.0 | 0.00 | 0.11 | 0.11 | 57 | 1025.0 |
| 20260905213618 | 72 | 40 | 4.0 | 7.0 | 0.00 | 0.11 | 0.11 | 59 | 1025.0 |
| 20260905213112 | 71 | 53 | 3.0 | 7.0 | 0.00 | 0.11 | 0.11 | 65 | 1025.0 |
| 20260905212606 | 71 | 125 | 0.0 | 0.0 | 0.00 | 0.11 | 0.11 | 77 | 1025.0 |
| 20260905212119 | 71 | 241 | 0.0 | 0.0 | 0.00 | 0.11 | 0.11 | 83 | 1025.0 |
| 20260905211611 | 70 | 241 | 0.0 | 0.0 | 0.02 | 0.11 | 0.11 | 81 | 1025.0 |
| 20260905211105 | 68 | 241 | 0.0 | 0.0 | 0.05 | 0.11 | 0.11 | 86 | 1025.1 |
| 20260905210624 | 67 | 241 | 0.0 | 0.0 | 0.11 | 0.11 | 0.11 | 87 | 1025.3 |
| 20260905210116 | 67 | 241 | 0.0 | 0.0 | 0.11 | 0.11 | 0.11 | 86 | 1025.3 |
| 20260905205610 | 67 | 241 | 0.0 | 0.0 | 0.11 | 0.11 | 0.11 | 85 | 1025.3 |
| 20260905205104 | 67 | 241 | 0.0 | 0.0 | 0.11 | 0.11 | 0.11 | 86 | 1025.4 |
| 20260905204618 | 67 | 241 | 0.0 | 0.0 | 0.11 | 0.11 | 0.11 | 85 | 1025.5 |
| 20260905204111 | 67 | 241 | 0.0 | 1.0 | 0.11 | 0.11 | 0.11 | 84 | 1025.5 |
| 20260905194114 | 80 | 153 | 1.0 | 3.0 | 0.00 | 0.00 | 0.00 | 39 | 1025.7 |
| 20260905193606 | 80 | 119 | 2.0 | 3.0 | 0.00 | 0.00 | 0.00 | 39 | 1025.7 |
| 20260905193141 | 79 | 61 | 0.0 | 0.0 | 0.00 | 0.00 | 0.00 | 40 | 1025.8 |
| 20260905192614 | 80 | 61 | 0.0 | 1.0 | 0.00 | 0.00 | 0.00 | 39 | 1025.9 |
| 20260905192108 | 80 | 178 | 0.0 | 1.0 | 0.00 | 0.00 | 0.00 | 39 | 1026.0 |
| 20260905191603 | 81 | 178 | 0.0 | 3.0 | 0.00 | 0.00 | 0.00 | 40 | 1026.1 |
| 20260905191117 | 81 | 178 | 1.0 | 3.0 | 0.00 | 0.00 | 0.00 | 37 | 1026.2 |
| 20260905190635 | 82 | 14 | 1.0 | 3.0 | 0.00 | 0.00 | 0.00 | 37 | 1026.2 |
| 20260905190128 | 82 | 57 | 1.0 | 5.0 | 0.00 | 0.00 | 0.00 | 38 | 1026.2 |
| 20260905185621 | 81 | 270 | 2.0 | 3.0 | 0.00 | 0.00 | 0.00 | 38 | 1026.3 |
| 20260905185135 | 80 | 158 | 2.0 | 3.0 | 0.00 | 0.00 | 0.00 | 40 | 1026.4 |
| 20260905184608 | 80 | 34 | 0.0 | 0.0 | 0.00 | 0.00 | 0.00 | 39 | 1026.5 |
| 20260905184106 | 80 | 33 | 0.0 | 3.0 | 0.00 | 0.00 | 0.00 | 38 | 1026.6 |
| 20260905183620 | 80 | 61 | 1.0 | 4.0 | 0.00 | 0.00 | 0.00 | 38 | 1026.6 |
| 20260905183114 | 80 | 103 | 2.0 | 6.0 | 0.00 | 0.00 | 0.00 | 39 | 1026.7 |
| 20260905182612 | 79 | 186 | 3.0 | 6.0 | 0.00 | 0.00 | 0.00 | 40 | 1026.7 |
| 20260905182107 | 79 | 187 | 3.0 | 10.0 | 0.00 | 0.00 | 0.00 | 41 | 1026.8 |
| 20260905181621 | 78 | 147 | 4.0 | 10.0 | 0.00 | 0.00 | 0.00 | 40 | 1026.9 |
| 20260905181114 | 78 | 56 | 1.0 | 5.0 | 0.00 | 0.00 | 0.00 | 40 | 1026.9 |
| 20260905180608 | 79 | 41 | 2.0 | 9.0 | 0.00 | 0.00 | 0.00 | 38 | 1027.0 |
| 20260905180143 | 79 | 126 | 3.0 | 9.0 | 0.00 | 0.00 | 0.00 | 40 | 1027.1 |
| 20260905175616 | 79 | 78 | 1.0 | 6.0 | 0.00 | 0.00 | 0.00 | 41 | 1027.2 |
| 20260905175114 | 79 | 166 | 3.0 | 6.0 | 0.00 | 0.00 | 0.00 | 40 | 1027.2 |
| 20260905174608 | 79 | 71 | 3.0 | 8.0 | 0.00 | 0.00 | 0.00 | 41 | 1027.1 |
| 20260905174122 | 78 | 117 | 2.0 | 6.0 | 0.00 | 0.00 | 0.00 | 42 | 1027.1 |
| 20260905173636 | 78 | 45 | 3.0 | 5.0 | 0.00 | 0.00 | 0.00 | 40 | 1027.2 |
| 20260905173108 | 78 | 147 | 1.0 | 4.0 | 0.00 | 0.00 | 0.00 | 40 | 1027.3 |
| 20260905172643 | 78 | 86 | 2.0 | 5.0 | 0.00 | 0.00 | 0.00 | 41 | 1027.4 |
| 20260905172116 | 78 | 146 | 2.0 | 8.0 | 0.00 | 0.00 | 0.00 | 42 | 1027.2 |
| 20260905171610 | 78 | 159 | 4.0 | 8.0 | 0.00 | 0.00 | 0.00 | 40 | 1027.2 |
| 20260905171104 | 78 | 143 | 3.0 | 8.0 | 0.00 | 0.00 | 0.00 | 41 | 1027.2 |
| 20260905170618 | 77 | 156 | 2.0 | 7.0 | 0.00 | 0.00 | 0.00 | 41 | 1027.4 |
| 20260905170132 | 77 | 130 | 2.0 | 7.0 | 0.00 | 0.00 | 0.00 | 42 | 1027.3 |
| 20260905165604 | 77 | 276 | 1.0 | 4.0 | 0.00 | 0.00 | 0.00 | 42 | 1027.4 |
| 20260905165115 | 76 | 217 | 0.0 | 4.0 | 0.00 | 0.00 | 0.00 | 41 | 1027.4 |
| 20260905164603 | 76 | 217 | 1.0 | 4.0 | 0.00 | 0.00 | 0.00 | 43 | 1027.4 |
| 20260905163630 | 75 | 130 | 2.0 | 4.0 | 0.00 | 0.00 | 0.00 | 44 | 1027.4 |
| 20260905163104 | 75 | 186 | 1.0 | 4.0 | 0.00 | 0.00 | 0.00 | 47 | 1027.4 |
| 20260905162635 | 74 | 300 | 0.0 | 3.0 | 0.00 | 0.00 | 0.00 | 47 | 1027.4 |
| 20260905162125 | 74 | 312 | 1.0 | 3.0 | 0.00 | 0.00 | 0.00 | 47 | 1027.4 |
| 20260905161619 | 74 | 228 | 1.0 | 3.0 | 0.00 | 0.00 | 0.00 | 44 | 1027.4 |
| 20260905161117 | 73 | 144 | 1.0 | 7.0 | 0.00 | 0.00 | 0.00 | 48 | 1027.4 |
| 20260905160609 | 73 | 140 | 4.0 | 7.0 | 0.00 | 0.00 | 0.00 | 49 | 1027.4 |
| 20260905155618 | 72 | 38 | 1.0 | 4.0 | 0.00 | 0.00 | 0.00 | 53 | 1027.4 |
| 20260905155112 | 72 | 155 | 2.0 | 4.0 | 0.00 | 0.00 | 0.00 | 55 | 1027.4 |
| 20260905154613 | 71 | 102 | 0.0 | 3.0 | 0.00 | 0.00 | 0.00 | 55 | 1027.4 |
| 20260905154128 | 71 | 102 | 1.0 | 4.0 | 0.00 | 0.00 | 0.00 | 56 | 1027.5 |
| 20260905153618 | 71 | 49 | 2.0 | 4.0 | 0.00 | 0.00 | 0.00 | 55 | 1027.5 |
| 20260905153112 | 72 | 146 | 0.0 | 0.0 | 0.00 | 0.00 | 0.00 | 58 | 1027.6 |
| 20260905152605 | 71 | 146 | 0.0 | 0.0 | 0.00 | 0.00 | 0.00 | 56 | 1027.5 |
| 20260905152119 | 71 | 146 | 0.0 | 0.0 | 0.00 | 0.00 | 0.00 | 58 | 1027.5 |
| 20260905151613 | 71 | 146 | 0.0 | 0.0 | 0.00 | 0.00 | 0.00 | 58 | 1027.5 |
| 20260905151118 | 70 | 146 | 0.0 | 0.0 | 0.00 | 0.00 | 0.00 | 59 | 1027.5 |
| 20260905150606 | 69 | 146 | 0.0 | 0.0 | 0.00 | 0.00 | 0.00 | 62 | 1027.4 |
| 20260905150119 | 68 | 146 | 0.0 | 0.0 | 0.00 | 0.00 | 0.00 | 64 | 1027.4 |
| 20260905145613 | 67 | 146 | 0.0 | 0.0 | 0.00 | 0.00 | 0.00 | 66 | 1027.4 |
| 20260905145106 | 66 | 146 | 0.0 | 0.0 | 0.00 | 0.00 | 0.00 | 67 | 1027.4 |
| 20260905144620 | 65 | 146 | 0.0 | 0.0 | 0.00 | 0.00 | 0.00 | 72 | 1027.4 |
| 20260905144113 | 64 | 146 | 0.0 | 0.0 | 0.00 | 0.00 | 0.00 | 77 | 1027.4 |
| 20260905143611 | 63 | 146 | 0.0 | 0.0 | 0.00 | 0.00 | 0.00 | 83 | 1027.4 |
| 20260905143104 | 61 | 146 | 0.0 | 0.0 | 0.00 | 0.00 | 0.00 | 85 | 1027.4 |
| 20260905142617 | 60 | 146 | 0.0 | 0.0 | 0.00 | 0.00 | 0.00 | 86 | 1027.4 |
| 20260905142111 | 58 | 34 | 0.0 | 0.0 | 0.00 | 0.00 | 0.00 | 90 | 1027.4 |
| 20260905141605 | 57 | 34 | 0.0 | 0.0 | 0.00 | 0.00 | 0.00 | 90 | 1027.3 |
| 20260905141118 | 57 | 34 | 0.0 | 0.0 | 0.00 | 0.00 | 0.00 | 90 | 1027.4 |
| 20260905140613 | 56 | 34 | 0.0 | 0.0 | 0.00 | 0.00 | 0.00 | 90 | 1027.3 |
| 20260905140119 | 56 | 34 | 0.0 | 0.0 | 0.00 | 0.00 | 0.00 | 90 | 1027.4 |
| 20260905135612 | 56 | 34 | 0.0 | 0.0 | 0.00 | 0.00 | 0.00 | 90 | 1027.3 |
| 20260905135106 | 55 | 34 | 0.0 | 0.0 | 0.00 | 0.00 | 0.00 | 90 | 1027.2 |
| 20260905134640 | 55 | 34 | 0.0 | 0.0 | 0.00 | 0.00 | 0.00 | 90 | 1027.2 |
| 20260905134113 | 54 | 34 | 0.0 | 0.0 | 0.00 | 0.00 | 0.00 | 90 | 1027.1 |
| 20260905133606 | 54 | 34 | 0.0 | 0.0 | 0.00 | 0.00 | 0.00 | 90 | 1027.0 |
| 20260905133141 | 54 | 34 | 0.0 | 0.0 | 0.00 | 0.01 | 0.00 | 90 | 1027.1 |
| 20260905132618 | 54 | 34 | 0.0 | 0.0 | 0.00 | 0.01 | 0.00 | 89 | 1027.0 |
| 20260905132112 | 54 | 34 | 0.0 | 0.0 | 0.00 | 0.01 | 0.00 | 89 | 1026.9 |
| 20260905131606 | 54 | 34 | 0.0 | 0.0 | 0.00 | 0.01 | 0.00 | 89 | 1026.7 |
| 20260905131141 | 54 | 34 | 0.0 | 0.0 | 0.00 | 0.01 | 0.00 | 89 | 1026.7 |
| 20260905130615 | 54 | 34 | 0.0 | 0.0 | 0.00 | 0.01 | 0.00 | 89 | 1026.6 |
| 20260905130128 | 54 | 34 | 0.0 | 0.0 | 0.00 | 0.01 | 0.00 | 88 | 1026.6 |
| 20260905125622 | 54 | 34 | 0.0 | 0.0 | 0.00 | 0.01 | 0.00 | 88 | 1026.6 |
| 20260905125116 | 54 | 34 | 0.0 | 0.0 | 0.00 | 0.01 | 0.00 | 89 | 1026.5 |
| 20260905124609 | 54 | 34 | 0.0 | 0.0 | 0.00 | 0.01 | 0.00 | 89 | 1026.5 |
| 20260905124107 | 54 | 34 | 0.0 | 0.0 | 0.00 | 0.01 | 0.00 | 89 | 1026.4 |
| 20260905123621 | 54 | 34 | 0.0 | 0.0 | 0.00 | 0.01 | 0.00 | 88 | 1026.4 |
| 20260905123115 | 54 | 34 | 0.0 | 0.0 | 0.00 | 0.01 | 0.00 | 87 | 1026.4 |
| 20260905122609 | 54 | 34 | 0.0 | 0.0 | 0.00 | 0.01 | 0.00 | 88 | 1026.4 |
| 20260905122103 | 54 | 34 | 0.0 | 0.0 | 0.00 | 0.01 | 0.00 | 88 | 1026.4 |
| 20260905121618 | 54 | 34 | 0.0 | 0.0 | 0.00 | 0.01 | 0.00 | 87 | 1026.4 |
| 20260905121111 | 54 | 34 | 0.0 | 0.0 | 0.00 | 0.01 | 0.00 | 88 | 1026.4 |
| 20260905120609 | 54 | 34 | 0.0 | 0.0 | 0.00 | 0.01 | 0.00 | 87 | 1026.4 |
| 20260905120103 | 54 | 34 | 0.0 | 0.0 | 0.00 | 0.01 | 0.00 | 87 | 1026.3 |
| 20260905115638 | 55 | 34 | 0.0 | 0.0 | 0.00 | 0.01 | 0.00 | 87 | 1026.3 |
| 20260905115110 | 55 | 34 | 0.0 | 0.0 | 0.00 | 0.01 | 0.00 | 87 | 1026.4 |
| 20260905114644 | 55 | 34 | 0.0 | 0.0 | 0.00 | 0.01 | 0.00 | 87 | 1026.2 |
| 20260905114117 | 55 | 34 | 0.0 | 0.0 | 0.00 | 0.01 | 0.00 | 87 | 1026.2 |
| 20260905113611 | 55 | 34 | 0.0 | 0.0 | 0.00 | 0.01 | 0.00 | 87 | 1026.2 |
| 20260905113105 | 55 | 34 | 0.0 | 0.0 | 0.00 | 0.01 | 0.00 | 87 | 1026.2 |
| 20260905112619 | 55 | 34 | 0.0 | 0.0 | 0.00 | 0.01 | 0.00 | 87 | 1026.2 |
| 20260905112112 | 55 | 34 | 0.0 | 0.0 | 0.00 | 0.01 | 0.00 | 87 | 1026.2 |
| 20260905111610 | 55 | 34 | 0.0 | 0.0 | 0.00 | 0.01 | 0.00 | 87 | 1026.2 |
| 20260905111105 | 56 | 34 | 0.0 | 0.0 | 0.00 | 0.01 | 0.00 | 87 | 1026.2 |
| 20260905110619 | 56 | 34 | 0.0 | 0.0 | 0.00 | 0.01 | 0.00 | 86 | 1026.2 |
| 20260905110112 | 56 | 34 | 0.0 | 0.0 | 0.00 | 0.01 | 0.00 | 86 | 1026.2 |
| 20260905105606 | 56 | 34 | 0.0 | 0.0 | 0.00 | 0.01 | 0.00 | 87 | 1026.2 |
| 20260905105120 | 56 | 34 | 0.0 | 0.0 | 0.00 | 0.01 | 0.00 | 86 | 1026.1 |
| 20260905104614 | 56 | 34 | 0.0 | 0.0 | 0.00 | 0.01 | 0.00 | 86 | 1026.1 |
| 20260905104112 | 56 | 34 | 0.0 | 0.0 | 0.00 | 0.01 | 0.00 | 86 | 1026.1 |
| 20260905103605 | 56 | 34 | 0.0 | 0.0 | 0.00 | 0.01 | 0.00 | 86 | 1026.1 |
| 20260905103119 | 56 | 34 | 0.0 | 0.0 | 0.00 | 0.01 | 0.00 | 86 | 1026.0 |
| 20260905102612 | 56 | 34 | 0.0 | 0.0 | 0.00 | 0.01 | 0.00 | 86 | 1026.1 |
| 20260905102107 | 57 | 34 | 0.0 | 0.0 | 0.00 | 0.01 | 0.00 | 86 | 1026.0 |
| 20260905101620 | 57 | 34 | 0.0 | 0.0 | 0.00 | 0.01 | 0.00 | 86 | 1026.0 |
| 20260905101113 | 56 | 34 | 0.0 | 0.0 | 0.00 | 0.01 | 0.00 | 86 | 1026.0 |
| 20260905100606 | 56 | 34 | 0.0 | 0.0 | 0.00 | 0.01 | 0.00 | 86 | 1026.0 |
| 20260905100121 | 56 | 34 | 0.0 | 0.0 | 0.00 | 0.01 | 0.00 | 85 | 1026.0 |
| 20260905095619 | 57 | 34 | 0.0 | 0.0 | 0.00 | 0.01 | 0.00 | 86 | 1026.0 |
| 20260905095112 | 57 | 34 | 0.0 | 0.0 | 0.00 | 0.01 | 0.00 | 86 | 1026.0 |
| 20260905094626 | 57 | 34 | 0.0 | 0.0 | 0.00 | 0.01 | 0.00 | 86 | 1025.9 |
| 20260905094120 | 57 | 34 | 0.0 | 0.0 | 0.00 | 0.01 | 0.00 | 86 | 1025.9 |